Wind_Speed
123 123 124 125 125 126 126 126 126 127 127 127 128 128 129 130 131 131 131 131 132 132 132 133 133 133 133 133 134 134 134 135 135 135 135 135 134 134 134 133 133 132
120 121 121 122 123 123 124 124 124 124 124 124 124 124 125 125 126 126 127 127 128 128 129 130 130 130 130 130 130 130 131 131 132 132 132 133 133 133 132 132 132 131
119 120 120 120 121 121 122 122 122 122 122 122 122 122 122 122 123 123 123 123 123 124 125 125 126 126 126 126 126 126 126 127 127 128 128 128 129 129 129 129 129 130
116 116 116 117 117 117 118 118 118 118 119 119 120 120 120 120 121 121 121 121 121 122 122 122 123 123 123 123 123 122 122 122 122 123 123 123 124 124 125 125 125 126
111 111 111 112 112 113 113 113 113 114 114 115 115 116 116 117 117 117 118 118 119 119 120 120 120 121 121 121 121 121 120 119 119 119 118 118 119 120 120 121 121 121
108 108 108 108 108 108 109 109 109 109 110 110 111 111 112 112 112 113 113 114 114 115 115 116 116 117 117 118 118 118 118 118 117 117 116 115 115 116 116 117 117 117
105 104 104 104 104 104 104 104 104 105 105 105 106 106 106 107 107 108 108 109 109 109 110 110 111 111 112 112 113 113 114 114 114 114 115 114 114 114 114 114 114 113
101 100 100 100 100 100 100 99 99 99 100 100 100 101 101 102 102 103 103 104 104 104 104 105 105 105 106 106 107 107 108 108 109 109 110 110 111 111 112 112 112 111
95 95 95 95 95 95 95 94 94 94 94 95 95 96 96 97 98 98 99 99 100 100 100 100 100 101 101 101 101 102 102 103 103 104 104 105 106 107 108 109 109 108
91 90 90 90 90 90 90 89 89 89 90 90 91 91 92 93 93 94 95 95 96 96 96 97 97 97 97 97 97 97 97 98 99 99 100 101 102 103 104 104 105 104
88 87 87 87 87 86 86 86 85 86 86 86 87 87 88 89 90 90 90 91 91 91 92 92 93 93 93 93 93 93 93 93 95 96 97 98 98 99 100 101 101 101
85 84 84 84 84 83 82 82 82 82 82 83 83 84 85 85 86 86 87 87 87 87 87 88 88 88 88 88 88 89 89 90 91 92 93 94 95 96 97 98 98 98
81 81 81 81 80 80 79 79 79 79 80 80 80 81 82 82 83 83 83 84 84 84 84 84 84 84 84 84 84 84 85 86 87 89 90 91 92 94 95 96 96 96
78 78 78 78 78 77 77 77 77 78 78 78 78 79 80 80 80 80 81 81 81 80 80 80 80 80 80 80 80 81 82 83 84 85 87 88 89 91 92 93 93 93
76 76 76 76 75 75 75 76 76 76 76 76 77 77 77 78 78 78 78 78 78 77 77 77 77 77 77 77 78 78 79 80 81 82 83 85 87 88 89 90 90 90
75 74 74 74 73 73 73 73 73 73 73 74 74 75 75 76 76 76 75 75 75 74 74 74 74 74 74 75 76 76 77 77 78 79 81 82 83 84 85 85 85 86
73 73 72 71 71 70 70 70 70 71 71 71 72 72 73 74 73 73 73 73 72 71 71 71 71 71 71 72 73 74 74 74 74 76 78 79 80 80 81 81 81 82
71 70 70 69 68 68 68 68 68 68 68 69 69 71 71 72 71 71 71 70 69 67 67 67 67 68 68 69 70 72 72 71 71 72 73 75 76 76 77 77 77 78
69 68 67 67 66 66 66 66 66 66 66 66 67 69 69 69 69 69 68 67 66 64 63 64 65 65 65 67 69 70 70 69 68 67 68 70 72 72 73 74 74 74
67 66 65 65 65 64 64 64 64 64 64 64 65 66 67 67 67 67 66 65 63 61 60 62 63 63 64 66 68 68 68 66 64 63 64 66 68 69 70 71 72 72
66 65 64 64 63 63 63 62 62 62 62 62 63 64 65 65 65 65 64 63 61 59 58 60 61 61 62 64 66 66 65 62 59 59 61 63 65 67 68 69 70 69
65 64 63 62 62 61 61 61 60 60 60 60 61 62 63 63 63 63 62 61 59 56 55 57 60 60 61 63 64 63 60 57 55 56 58 61 63 65 65 66 66 66
64 63 62 61 61 60 59 59 58 58 59 59 60 61 63 62 61 61 61 59 57 54 53 54 57 59 60 61 61 59 55 51 50 53 57 60 62 61 61 60 61 61
63 62 61 61 60 59 58 57 57 57 58 58 59 60 61 61 60 60 60 58 55 52 50 50 54 58 60 60 58 55 50 47 48 52 56 58 59 58 56 55 56 57
63 62 61 60 59 58 57 56 56 57 57 57 58 59 60 60 59 58 58 57 53 51 48 47 51 57 60 58 55 51 47 45 47 51 54 55 55 54 53 52 53 54
62 61 60 59 58 58 57 56 55 56 56 57 57 58 59 59 58 57 57 55 52 49 47 45 48 55 59 56 52 49 45 44 47 50 50 51 51 50 50 50 51 53
Wind_Direction
281 281 280 280 280 279 279 278 277 277 276 276 275 275 275 275 274 274 274 273 273 273 272 271 271 270 270 269 269 268 268 268 268 267 267 267 266 266 266 265 265 264
282 282 282 281 281 281 280 280 279 279 278 278 277 277 276 275 275 274 274 273 273 273 272 272 271 271 270 269 269 268 268 267 267 267 266 266 266 266 265 265 265 264
283 283 282 282 282 281 281 281 281 280 280 279 279 278 278 277 277 276 275 275 274 273 273 273 272 271 271 270 269 269 268 268 267 267 266 266 265 265 265 264 264 264
283 283 283 282 282 282 281 281 281 280 280 279 279 279 278 278 277 277 276 276 275 275 274 274 273 273 272 272 271 270 269 269 268 267 267 266 266 265 265 264 263 263
285 284 284 284 283 283 282 282 281 281 280 280 279 278 278 277 277 276 276 276 275 275 274 274 274 273 273 273 273 272 271 271 270 269 268 267 267 266 265 265 264 263
287 286 286 285 285 284 284 283 282 281 281 280 280 279 278 278 277 277 276 276 275 274 274 273 273 273 272 272 272 272 272 271 271 271 270 269 268 267 266 265 264 263
289 288 288 287 286 285 284 284 283 282 281 281 280 280 280 279 278 278 277 276 276 275 274 274 273 273 272 272 272 271 271 271 270 270 270 269 269 268 267 266 265 264
290 290 289 288 287 286 285 285 284 283 283 282 282 281 280 280 279 278 278 277 276 276 275 275 274 273 273 272 272 271 271 271 270 270 270 269 269 268 267 267 266 265
291 290 289 288 287 287 286 286 285 284 284 283 282 282 281 280 280 279 278 278 277 277 276 276 275 274 274 273 272 272 272 271 271 270 270 269 268 268 267 266 265 265
292 291 290 289 289 288 287 287 286 286 285 284 283 282 281 280 280 279 278 278 278 277 277 276 276 275 275 274 274 273 272 272 271 271 270 269 268 267 266 266 265 264
294 293 292 291 291 290 289 289 288 287 286 285 284 283 282 281 280 280 279 278 278 277 277 276 276 276 275 275 274 274 273 272 271 271 270 269 268 267 266 266 265 264
295 294 294 293 293 292 291 291 290 288 287 286 285 284 283 282 282 281 280 279 279 278 277 277 276 276 275 275 274 274 273 272 271 270 270 269 268 267 266 265 265 263
297 296 296 295 294 294 293 292 291 290 289 287 286 285 284 283 283 282 281 281 280 279 279 278 278 277 276 276 275 274 273 272 271 270 269 268 268 267 266 265 265 264
299 299 298 297 297 296 295 294 293 291 290 289 288 287 286 285 284 283 283 282 282 281 281 280 280 279 278 277 276 274 273 272 271 270 269 268 267 266 266 265 265 264
302 301 300 299 299 298 296 295 294 293 292 291 290 288 287 286 286 285 284 284 283 283 282 282 281 280 279 278 277 276 274 273 272 271 270 269 268 267 266 266 265 265
304 303 302 301 300 299 297 296 295 294 293 291 290 289 288 287 287 286 285 285 284 284 283 282 282 281 280 279 277 276 275 274 273 272 270 269 268 267 267 267 266 266
306 305 303 302 301 300 299 297 296 294 293 292 291 290 289 288 287 287 286 285 285 285 284 284 282 281 280 279 278 276 274 273 272 271 271 270 270 269 268 267 266 265
307 306 305 304 303 301 299 298 297 295 294 293 292 291 290 289 288 288 287 287 286 286 286 285 284 282 281 280 278 276 275 273 272 271 271 271 271 270 269 268 267 265
309 308 307 305 304 302 300 299 297 296 295 294 293 291 291 290 290 289 289 288 288 288 288 287 285 283 282 280 278 277 276 275 274 273 273 273 272 271 270 269 267 265
311 310 308 307 305 303 302 300 299 298 297 295 294 293 292 292 291 291 291 291 290 290 290 288 286 284 283 281 279 278 277 277 277 276 275 273 272 271 269 268 266 265
314 312 310 308 307 305 304 302 301 300 298 297 296 294 293 293 293 293 293 292 292 292 291 289 287 285 283 281 280 279 279 279 279 278 275 273 270 269 267 267 266 265
315 313 312 310 308 307 306 304 303 302 300 299 298 296 295 294 295 294 294 294 294 294 293 291 288 286 284 282 281 281 281 282 281 279 275 272 269 268 267 267 267 267
317 315 313 312 310 309 308 307 305 304 302 300 299 298 297 296 296 296 295 295 296 295 295 293 290 288 285 283 282 283 283 284 283 280 276 273 271 270 269 269 268 268
318 317 316 314 313 312 310 309 308 306 304 302 301 299 298 298 298 298 297 298 298 297 296 295 293 290 287 285 285 285 286 287 284 279 276 274 273 272 272 270 269 267
320 319 318 316 315 314 313 312 310 308 306 305 303 302 301 301 301 301 300 300 300 299 298 297 295 291 288 288 289 290 290 289 284 280 277 276 275 274 273 271 268 266
322 321 320 319 318 317 315 314 313 310 308 307 306 304 304 304 304 303 302 302 301 301 300 299 296 293 291 291 293 294 293 290 285 281 280 278 277 275 273 271 268 266
Height
10094 10089 10084 10078 10072 10068 10064 10060 10057 10053 10050 10047 10044 10040 10037 10033 10030 10028 10027 10024 10022 10020 10018 10017 10017 10016 10016 10016 10015 10015 10015 10015 10015 10016 10017 10019 10021 10023 10025 10028 10029 10032
10075 10070 10064 10059 10053 10048 10043 10039 10035 10031 10028 10025 10022 10019 10016 10013 10009 10007 10005 10003 10001 9998 9996 9994 9993 9992 9992 9992 9993 9993 9993 9993 9993 9994 9995 9997 9999 10000 10003 10005 10007 10010
10057 10051 10045 10040 10034 10029 10024 10019 10015 10011 10007 10004 10000 9997 9994 9991 9988 9985 9983 9981 9980 9978 9975 9972 9970 9969 9969 9969 9970 9971 9971 9971 9972 9972 9973 9976 9977 9978 9981 9983 9985 9988
10039 10033 10027 10021 10016 10011 10006 10001 9997 9993 9988 9984 9980 9977 9973 9970 9967 9964 9962 9960 9958 9956 9954 9951 9949 9948 9946 9946 9946 9948 9949 9949 9951 9952 9953 9956 9956 9956 9960 9962 9964 9967
10021 10015 10009 10004 9998 9993 9988 9983 9979 9974 9969 9965 9961 9957 9954 9951 9948 9945 9942 9940 9938 9936 9934 9931 9929 9928 9926 9925 9924 9925 9927 9927 9929 9930 9932 9936 9936 9935 9938 9940 9942 9945
10003 9998 9992 9986 9980 9975 9970 9965 9960 9955 9950 9946 9942 9938 9934 9931 9929 9926 9923 9920 9918 9916 9914 9912 9910 9909 9907 9907 9906 9905 9906 9906 9907 9908 9910 9914 9915 9914 9915 9917 9919 9923
9986 9981 9975 9968 9962 9956 9951 9947 9942 9937 9932 9928 9924 9920 9916 9913 9910 9907 9904 9901 9899 9896 9895 9894 9892 9890 9889 9889 9888 9887 9887 9887 9888 9889 9889 9891 9893 9894 9894 9894 9896 9900
9970 9964 9958 9951 9945 9938 9933 9929 9925 9920 9916 9912 9908 9903 9899 9896 9892 9889 9886 9883 9881 9878 9877 9875 9874 9873 9871 9871 9870 9870 9870 9870 9870 9870 9871 9871 9871 9872 9872 9872 9873 9877
9955 9948 9941 9934 9928 9922 9918 9913 9909 9905 9900 9896 9892 9887 9883 9879 9876 9872 9869 9866 9864 9862 9860 9858 9857 9856 9854 9854 9853 9853 9854 9853 9853 9852 9852 9852 9851 9851 9851 9850 9852 9856
9939 9932 9925 9919 9913 9908 9903 9899 9894 9890 9886 9881 9877 9872 9868 9864 9860 9857 9854 9851 9848 9846 9844 9842 9840 9839 9838 9837 9837 9838 9838 9837 9836 9834 9833 9832 9832 9831 9830 9830 9832 9836
9923 9916 9910 9904 9898 9893 9889 9884 9880 9875 9871 9866 9862 9857 9853 9849 9845 9842 9839 9837 9834 9831 9829 9827 9825 9824 9822 9821 9821 9822 9822 9821 9818 9816 9814 9813 9813 9812 9811 9811 9812 9815
9909 9902 9896 9890 9884 9879 9875 9870 9865 9861 9856 9851 9847 9843 9838 9834 9830 9827 9824 9822 9820 9817 9815 9813 9811 9809 9808 9807 9807 9806 9806 9805 9802 9799 9797 9795 9795 9793 9792 9793 9793 9795
9896 9889 9883 9876 9871 9866 9861 9856 9851 9846 9842 9837 9833 9829 9824 9821 9817 9813 9810 9807 9805 9803 9801 9799 9797 9795 9794 9793 9793 9791 9790 9788 9785 9783 9781 9779 9778 9776 9774 9774 9775 9777
9884 9877 9870 9864 9858 9853 9848 9842 9837 9832 9828 9823 9819 9815 9810 9806 9803 9799 9796 9793 9791 9789 9787 9785 9783 9780 9779 9778 9778 9776 9774 9772 9770 9767 9765 9763 9761 9759 9758 9757 9759 9761
9872 9865 9858 9852 9847 9841 9835 9829 9824 9819 9815 9810 9805 9801 9796 9792 9789 9786 9783 9780 9778 9776 9774 9771 9769 9766 9765 9764 9762 9760 9758 9757 9755 9752 9749 9747 9744 9743 9742 9743 9746 9749
9860 9853 9847 9841 9835 9829 9823 9818 9812 9807 9802 9798 9793 9788 9783 9779 9776 9773 9771 9768 9766 9763 9761 9758 9756 9753 9752 9750 9747 9745 9744 9742 9741 9737 9733 9732 9730 9729 9730 9731 9733 9736
9849 9841 9835 9829 9824 9818 9812 9806 9801 9796 9791 9786 9781 9776 9771 9767 9764 9761 9758 9756 9754 9751 9749 9746 9743 9741 9739 9737 9733 9730 9729 9730 9728 9723 9719 9718 9717 9717 9718 9718 9719 9722
9838 9831 9824 9818 9813 9807 9800 9795 9790 9785 9780 9775 9769 9763 9759 9755 9752 9749 9745 9743 9742 9740 9737 9734 9730 9728 9726 9723 9719 9715 9714 9715 9715 9712 9709 9707 9706 9705 9705 9704 9705 9707
9828 9821 9814 9808 9802 9796 9790 9785 9780 9774 9769 9764 9758 9751 9747 9743 9740 9737 9733 9731 9730 9729 9727 9722 9718 9716 9714 9709 9705 9701 9700 9701 9702 9702 9700 9697 9694 9692 9691 9690 9690 9692
9818 9811 9804 9798 9791 9786 9780 9775 9770 9764 9759 9754 9747 9741 9736 9732 9729 9725 9722 9720 9719 9718 9716 9710 9706 9704 9701 9695 9691 9689 9688 9690 9691 9691 9689 9685 9682 9679 9678 9676 9675 9677
9809 9802 9795 9789 9782 9776 9771 9765 9760 9754 9749 9743 9737 9731 9726 9722 9719 9715 9712 9709 9708 9708 9705 9699 9694 9692 9689 9683 9679 9678 9678 9680 9681 9679 9675 9672 9668 9666 9664 9663 9663 9664
9799 9793 9786 9780 9774 9767 9762 9756 9751 9745 9739 9733 9727 9721 9716 9712 9709 9705 9702 9699 9698 9698 9695 9688 9682 9680 9677 9672 9669 9668 9669 9670 9670 9665 9660 9657 9654 9653 9653 9653 9653 9655
9791 9784 9777 9771 9765 9759 9753 9748 9743 9736 9730 9724 9718 9712 9706 9702 9700 9696 9692 9691 9689 9688 9685 9679 9671 9667 9664 9661 9659 9659 9660 9661 9658 9652 9646 9643 9642 9642 9644 9645 9645 9646
9783 9776 9769 9762 9757 9751 9745 9740 9734 9727 9721 9715 9709 9703 9697 9693 9691 9687 9682 9681 9680 9678 9675 9670 9661 9654 9652 9649 9649 9650 9651 9651 9646 9639 9634 9632 9631 9633 9635 9636 9636 9635
9775 9768 9761 9755 9748 9743 9737 9732 9725 9718 9712 9706 9700 9694 9689 9684 9682 9678 9673 9671 9670 9668 9666 9662 9653 9644 9639 9639 9639 9640 9641 9639 9634 9628 9624 9623 9623 9624 9625 9625 9624 9622
9768 9761 9754 9747 9741 9735 9729 9723 9717 9709 9703 9697 9691 9685 9680 9676 9673 9669 9665 9662 9661 9659 9656 9653 9645 9635 9629 9630 9631 9631 9631 9628 9622 9618 9615 9614 9614 9615 9614 9613 9613 9612